Time,TemperatureF,DewpointF,PressureIn,WindDirection,WindDirectionDegrees,WindSpeedMPH,WindSpeedGustMPH,Humidity,HourlyPrecipIn,Conditions,Clouds,dailyrainin,SoftwareType,DateUTC
2013-06-06 00:00:00,59.8,45.9,29.95,NE,48,1.0,1.0,60,0.00,,,0.00,Wunderground v.1.12,2013-06-06 04:00:00,
2013-06-06 00:02:00,59.6,45.7,29.95,NE,48,1.0,4.0,60,0.00,,,0.00,Wunderground v.1.12,2013-06-06 04:02:00,
2013-06-06 00:04:00,59.6,45.7,29.95,NE,45,0.0,4.0,60,0.00,,,0.00,Wunderground v.1.12,2013-06-06 04:04:00,
2013-06-06 00:07:00,59.5,46.0,29.95,NE,46,0.0,1.0,61,0.00,,,0.00,Wunderground v.1.12,2013-06-06 04:07:00,
2013-06-06 00:09:00,59.3,45.4,29.95,NE,44,1.0,1.0,60,0.00,,,0.00,Wunderground v.1.12,2013-06-06 04:09:00,
2013-06-06 00:15:00,59.2,45.8,29.95,NE,53,1.0,1.0,61,0.00,,,0.00,Wunderground v.1.12,2013-06-06 04:15:00,
2013-06-06 00:17:00,59.2,45.8,29.95,NE,48,0.0,2.0,61,0.00,,,0.00,Wunderground v.1.12,2013-06-06 04:17:00,
2013-06-06 00:24:00,59.0,46.0,29.95,NE,52,1.0,1.0,62,0.00,,,0.00,Wunderground v.1.12,2013-06-06 04:24:00,
2013-06-06 00:29:00,59.0,46.0,29.94,NE,48,0.0,4.0,62,0.00,,,0.00,Wunderground v.1.12,2013-06-06 04:29:00,
2013-06-06 00:35:00,58.9,45.9,29.94,ENE,62,3.0,3.0,62,0.00,,,0.00,Wunderground v.1.12,2013-06-06 04:35:00,
2013-06-06 00:40:00,58.9,46.3,29.94,ENE,65,1.0,2.0,63,0.00,,,0.00,Wunderground v.1.12,2013-06-06 04:40:00,
2013-06-06 00:46:00,59.0,46.0,29.94,NE,39,1.0,2.0,62,0.00,,,0.00,Wunderground v.1.12,2013-06-06 04:46:00,
2013-06-06 00:52:00,59.2,46.2,29.94,NE,39,3.0,3.0,62,0.00,,,0.00,Wunderground v.1.12,2013-06-06 04:52:00,
2013-06-06 00:57:00,59.2,46.6,29.94,NE,39,2.0,2.0,63,0.00,,,0.00,Wunderground v.1.12,2013-06-06 04:57:00,
2013-06-06 01:04:00,59.2,46.6,29.94,NE,50,3.0,5.0,63,0.00,,,0.00,Wunderground v.1.12,2013-06-06 05:04:00,
2013-06-06 01:09:00,59.0,46.4,29.94,NE,50,0.0,2.0,63,0.00,,,0.00,Wunderground v.1.12,2013-06-06 05:09:00,
2013-06-06 01:15:00,59.0,46.4,29.94,NE,48,3.0,3.0,63,0.00,,,0.00,Wunderground v.1.12,2013-06-06 05:15:00,
2013-06-06 01:21:00,59.0,46.4,29.94,NE,45,0.0,2.0,63,0.00,,,0.00,Wunderground v.1.12,2013-06-06 05:21:00,
2013-06-06 01:27:00,59.2,46.6,29.93,NE,43,0.0,2.0,63,0.00,,,0.00,Wunderground v.1.12,2013-06-06 05:27:00,
2013-06-06 01:34:00,59.3,46.7,29.93,NE,42,1.0,3.0,63,0.00,,,0.00,Wunderground v.1.12,2013-06-06 05:34:00,
2013-06-06 01:40:00,59.3,46.7,29.93,NE,40,0.0,2.0,63,0.00,,,0.00,Wunderground v.1.12,2013-06-06 05:40:00,
2013-06-06 01:46:00,59.2,46.6,29.93,NNE,31,2.0,4.0,63,0.00,,,0.00,Wunderground v.1.12,2013-06-06 05:46:00,
2013-06-06 01:51:00,59.0,46.4,29.93,NNE,29,8.0,8.0,63,0.00,,,0.00,Wunderground v.1.12,2013-06-06 05:51:00,
2013-06-06 01:57:00,59.0,46.8,29.92,NNE,14,1.0,4.0,64,0.00,,,0.00,Wunderground v.1.12,2013-06-06 05:57:00,
2013-06-06 02:02:00,59.0,46.4,29.92,NNE,14,6.0,6.0,63,0.00,,,0.00,Wunderground v.1.12,2013-06-06 06:02:00,
2013-06-06 02:07:00,59.0,46.0,29.92,NNE,18,7.0,7.0,62,0.00,,,0.00,Wunderground v.1.12,2013-06-06 06:07:00,
2013-06-06 02:12:00,59.0,45.6,29.92,NNE,30,5.0,10.0,61,0.00,,,0.00,Wunderground v.1.12,2013-06-06 06:12:00,
2013-06-06 02:17:00,59.2,45.3,29.92,NE,39,2.0,7.0,60,0.00,,,0.00,Wunderground v.1.12,2013-06-06 06:17:00,
2013-06-06 02:22:00,59.2,44.4,29.92,NNE,19,5.0,10.0,58,0.00,,,0.00,Wunderground v.1.12,2013-06-06 06:22:00,
2013-06-06 02:27:00,59.2,44.0,29.92,East,79,5.0,9.0,57,0.00,,,0.00,Wunderground v.1.12,2013-06-06 06:27:00,
2013-06-06 02:32:00,59.0,43.3,29.92,NE,53,3.0,7.0,56,0.00,,,0.00,Wunderground v.1.12,2013-06-06 06:32:00,
2013-06-06 02:37:00,58.9,43.2,29.92,ESE,121,0.0,6.0,56,0.00,,,0.00,Wunderground v.1.12,2013-06-06 06:37:00,
2013-06-06 02:42:00,58.7,43.0,29.92,ENE,59,2.0,5.0,56,0.00,,,0.00,Wunderground v.1.12,2013-06-06 06:42:00,
2013-06-06 02:47:00,58.6,42.9,29.92,NE,36,3.0,3.0,56,0.00,,,0.00,Wunderground v.1.12,2013-06-06 06:47:00,
2013-06-06 02:52:00,58.4,42.3,29.92,NE,40,3.0,4.0,55,0.00,,,0.00,Wunderground v.1.12,2013-06-06 06:52:00,
2013-06-06 02:57:00,58.4,42.3,29.91,NE,43,3.0,8.0,55,0.00,,,0.00,Wunderground v.1.12,2013-06-06 06:57:00,
2013-06-06 03:02:00,58.3,42.2,29.91,ENE,61,0.0,6.0,55,0.00,,,0.00,Wunderground v.1.12,2013-06-06 07:02:00,
2013-06-06 03:07:00,58.3,42.2,29.91,NNE,21,3.0,8.0,55,0.00,,,0.00,Wunderground v.1.12,2013-06-06 07:07:00,
2013-06-06 03:12:00,58.1,41.5,29.90,NNE,33,6.0,11.0,54,0.00,,,0.00,Wunderground v.1.12,2013-06-06 07:12:00,
2013-06-06 03:17:00,58.3,41.7,29.90,NNE,31,3.0,10.0,54,0.00,,,0.00,Wunderground v.1.12,2013-06-06 07:17:00,
2013-06-06 03:22:00,58.3,42.2,29.90,NNE,14,7.0,7.0,55,0.00,,,0.00,Wunderground v.1.12,2013-06-06 07:22:00,
2013-06-06 03:27:00,58.3,42.2,29.90,NE,56,3.0,5.0,55,0.00,,,0.00,Wunderground v.1.12,2013-06-06 07:27:00,
2013-06-06 03:32:00,58.1,42.0,29.90,NE,42,0.0,6.0,55,0.00,,,0.00,Wunderground v.1.12,2013-06-06 07:32:00,
2013-06-06 03:37:00,58.0,42.4,29.90,NE,42,0.0,6.0,56,0.00,,,0.00,Wunderground v.1.12,2013-06-06 07:37:00,
2013-06-06 03:42:00,57.8,42.7,29.90,NNE,26,0.0,8.0,57,0.00,,,0.00,Wunderground v.1.12,2013-06-06 07:42:00,
2013-06-06 03:47:00,57.6,42.9,29.90,NE,47,5.0,7.0,58,0.00,,,0.00,Wunderground v.1.12,2013-06-06 07:47:00,
2013-06-06 03:52:00,57.5,42.4,29.90,NNE,31,4.0,11.0,57,0.00,,,0.00,Wunderground v.1.12,2013-06-06 07:52:00,
2013-06-06 03:57:00,57.5,43.3,29.89,NNE,21,5.0,6.0,59,0.00,,,0.00,Wunderground v.1.12,2013-06-06 07:57:00,
2013-06-06 04:02:00,57.5,43.7,29.89,NNE,28,5.0,8.0,60,0.00,,,0.00,Wunderground v.1.12,2013-06-06 08:02:00,
2013-06-06 04:07:00,57.3,43.5,29.89,ENE,59,0.0,6.0,60,0.00,,,0.00,Wunderground v.1.12,2013-06-06 08:07:00,
2013-06-06 04:12:00,57.2,43.4,29.89,NE,42,7.0,7.0,60,0.00,,,0.00,Wunderground v.1.12,2013-06-06 08:12:00,
2013-06-06 04:17:00,57.0,43.2,29.89,NE,44,5.0,10.0,60,0.00,,,0.00,Wunderground v.1.12,2013-06-06 08:17:00,
2013-06-06 04:22:00,56.9,42.7,29.89,ENE,71,7.0,10.0,59,0.00,,,0.00,Wunderground v.1.12,2013-06-06 08:22:00,
2013-06-06 04:27:00,56.9,42.7,29.89,NNE,33,5.0,9.0,59,0.00,,,0.00,Wunderground v.1.12,2013-06-06 08:27:00,
2013-06-06 04:32:00,56.7,42.5,29.89,NE,44,5.0,8.0,59,0.00,,,0.00,Wunderground v.1.12,2013-06-06 08:32:00,
2013-06-06 04:37:00,56.7,42.5,29.89,NNW,344,6.0,9.0,59,0.00,,,0.00,Wunderground v.1.12,2013-06-06 08:37:00,
2013-06-06 04:42:00,56.7,42.1,29.89,NE,45,4.0,9.0,58,0.00,,,0.00,Wunderground v.1.12,2013-06-06 08:42:00,
2013-06-06 04:47:00,56.7,42.1,29.89,ENE,58,1.0,7.0,58,0.00,,,0.00,Wunderground v.1.12,2013-06-06 08:47:00,
2013-06-06 04:52:00,56.6,42.0,29.89,NE,41,8.0,12.0,58,0.00,,,0.00,Wunderground v.1.12,2013-06-06 08:52:00,
2013-06-06 04:57:00,56.6,41.5,29.88,NNE,25,5.0,6.0,57,0.00,,,0.00,Wunderground v.1.12,2013-06-06 08:57:00,
2013-06-06 05:02:00,56.6,41.5,29.88,NE,43,5.0,9.0,57,0.00,,,0.00,Wunderground v.1.12,2013-06-06 09:02:00,
2013-06-06 05:07:00,56.6,41.5,29.88,North,360,3.0,8.0,57,0.00,,,0.00,Wunderground v.1.12,2013-06-06 09:07:00,
2013-06-06 05:12:00,56.6,42.0,29.87,NNE,19,3.0,8.0,58,0.00,,,0.00,Wunderground v.1.12,2013-06-06 09:12:00,
2013-06-06 05:17:00,56.6,41.5,29.87,NE,39,10.0,12.0,57,0.00,,,0.00,Wunderground v.1.12,2013-06-06 09:17:00,
2013-06-06 05:22:00,56.7,41.6,29.87,ENE,65,2.0,6.0,57,0.00,,,0.00,Wunderground v.1.12,2013-06-06 09:22:00,
2013-06-06 05:27:00,56.6,41.5,29.86,North,8,3.0,8.0,57,0.00,,,0.00,Wunderground v.1.12,2013-06-06 09:27:00,
2013-06-06 05:32:00,56.6,41.5,29.86,NNE,21,5.0,9.0,57,0.00,,,0.00,Wunderground v.1.12,2013-06-06 09:32:00,
2013-06-06 05:37:00,56.6,42.0,29.86,NNE,14,6.0,7.0,58,0.00,,,0.00,Wunderground v.1.12,2013-06-06 09:37:00,
2013-06-06 05:42:00,56.5,41.9,29.87,NNE,21,1.0,7.0,58,0.00,,,0.00,Wunderground v.1.12,2013-06-06 09:42:00,
2013-06-06 05:47:00,56.5,41.4,29.87,North,2,3.0,8.0,57,0.00,,,0.00,Wunderground v.1.12,2013-06-06 09:47:00,
2013-06-06 05:52:00,56.6,42.0,29.87,NE,49,4.0,10.0,58,0.00,,,0.00,Wunderground v.1.12,2013-06-06 09:52:00,
2013-06-06 05:57:00,56.5,41.9,29.87,NE,55,3.0,6.0,58,0.00,,,0.00,Wunderground v.1.12,2013-06-06 09:57:00,
2013-06-06 06:02:00,56.5,42.3,29.87,North,8,4.0,6.0,59,0.00,,,0.00,Wunderground v.1.12,2013-06-06 10:02:00,
2013-06-06 06:07:00,56.5,42.3,29.87,NE,37,5.0,9.0,59,0.00,,,0.00,Wunderground v.1.12,2013-06-06 10:07:00,
2013-06-06 06:12:00,56.5,42.8,29.87,NNE,31,4.0,9.0,60,0.00,,,0.00,Wunderground v.1.12,2013-06-06 10:12:00,
2013-06-06 06:17:00,56.5,42.8,29.87,NNE,28,4.0,6.0,60,0.00,,,0.00,Wunderground v.1.12,2013-06-06 10:17:00,
2013-06-06 06:22:00,56.3,42.1,29.87,North,8,1.0,10.0,59,0.00,,,0.00,Wunderground v.1.12,2013-06-06 10:22:00,
2013-06-06 06:27:00,56.5,42.3,29.87,NE,52,6.0,8.0,59,0.00,,,0.00,Wunderground v.1.12,2013-06-06 10:27:00,
2013-06-06 06:32:00,56.5,42.3,29.87,NE,54,5.0,11.0,59,0.00,,,0.00,Wunderground v.1.12,2013-06-06 10:32:00,
2013-06-06 06:37:00,56.6,42.4,29.87,NNE,33,3.0,11.0,59,0.00,,,0.00,Wunderground v.1.12,2013-06-06 10:37:00,
2013-06-06 06:42:00,56.6,42.9,29.87,NNE,19,4.0,9.0,60,0.00,,,0.00,Wunderground v.1.12,2013-06-06 10:42:00,
2013-06-06 06:47:00,56.6,42.9,29.87,NE,35,3.0,8.0,60,0.00,,,0.00,Wunderground v.1.12,2013-06-06 10:47:00,
2013-06-06 06:52:00,56.6,43.3,29.87,ENE,61,2.0,4.0,61,0.00,,,0.00,Wunderground v.1.12,2013-06-06 10:52:00,
2013-06-06 06:57:00,56.6,42.9,29.87,North,7,4.0,11.0,60,0.00,,,0.00,Wunderground v.1.12,2013-06-06 10:57:00,
2013-06-06 07:02:00,56.6,43.3,29.87,NE,55,3.0,7.0,61,0.00,,,0.00,Wunderground v.1.12,2013-06-06 11:02:00,
2013-06-06 07:07:00,56.7,43.0,29.87,NNE,16,3.0,9.0,60,0.00,,,0.00,Wunderground v.1.12,2013-06-06 11:07:00,
2013-06-06 07:12:00,56.7,43.4,29.87,NNE,21,6.0,10.0,61,0.00,,,0.00,Wunderground v.1.12,2013-06-06 11:12:00,
2013-06-06 07:17:00,56.7,43.4,29.87,ENE,62,3.0,9.0,61,0.00,,,0.00,Wunderground v.1.12,2013-06-06 11:17:00,
2013-06-06 07:22:00,56.9,43.6,29.87,NE,37,4.0,4.0,61,0.00,,,0.00,Wunderground v.1.12,2013-06-06 11:22:00,
2013-06-06 07:27:00,56.9,44.0,29.86,NNW,335,6.0,10.0,62,0.00,,,0.00,Wunderground v.1.12,2013-06-06 11:27:00,
2013-06-06 07:32:00,57.0,44.1,29.86,NE,34,0.0,10.0,62,0.00,,,0.00,Wunderground v.1.12,2013-06-06 11:32:00,
2013-06-06 07:37:00,57.0,44.5,29.86,ENE,69,4.0,6.0,63,0.00,,,0.00,Wunderground v.1.12,2013-06-06 11:37:00,
2013-06-06 07:42:00,57.0,44.1,29.86,NE,46,0.0,9.0,62,0.00,,,0.00,Wunderground v.1.12,2013-06-06 11:42:00,
2013-06-06 07:47:00,57.0,44.5,29.86,ENE,65,4.0,6.0,63,0.00,,,0.00,Wunderground v.1.12,2013-06-06 11:47:00,
2013-06-06 07:52:00,57.0,44.1,29.86,NNE,19,4.0,9.0,62,0.00,,,0.00,Wunderground v.1.12,2013-06-06 11:52:00,
2013-06-06 07:57:00,57.2,44.3,29.84,NE,42,0.0,8.0,62,0.00,,,0.00,Wunderground v.1.12,2013-06-06 11:57:00,
2013-06-06 08:02:00,57.2,44.3,29.84,NE,48,5.0,5.0,62,0.00,,,0.00,Wunderground v.1.12,2013-06-06 12:02:00,
2013-06-06 08:07:00,57.3,44.4,29.84,NNE,17,5.0,7.0,62,0.00,,,0.00,Wunderground v.1.12,2013-06-06 12:07:00,
2013-06-06 08:13:00,57.3,44.4,29.84,North,359,2.0,7.0,62,0.00,,,0.00,Wunderground v.1.12,2013-06-06 12:13:00,
2013-06-06 08:18:00,57.5,45.0,29.84,ENE,73,6.0,9.0,63,0.00,,,0.00,Wunderground v.1.12,2013-06-06 12:18:00,
2013-06-06 08:23:00,57.5,44.1,29.84,NE,48,2.0,10.0,61,0.00,,,0.00,Wunderground v.1.12,2013-06-06 12:23:00,
2013-06-06 08:28:00,57.6,44.2,29.83,NNE,24,6.0,9.0,61,0.00,,,0.00,Wunderground v.1.12,2013-06-06 12:28:00,
2013-06-06 08:33:00,57.6,44.2,29.83,NE,37,10.0,10.0,61,0.00,,,0.00,Wunderground v.1.12,2013-06-06 12:33:00,
2013-06-06 08:38:00,57.8,44.4,29.83,ENE,76,8.0,9.0,61,0.00,,,0.00,Wunderground v.1.12,2013-06-06 12:38:00,
2013-06-06 08:43:00,58.0,44.6,29.84,NE,45,3.0,8.0,61,0.00,,,0.00,Wunderground v.1.12,2013-06-06 12:43:00,
2013-06-06 08:48:00,58.1,44.3,29.84,NE,55,1.0,9.0,60,0.00,,,0.00,Wunderground v.1.12,2013-06-06 12:48:00,
2013-06-06 08:53:00,58.3,44.9,29.84,NNE,19,4.0,11.0,61,0.00,,,0.00,Wunderground v.1.12,2013-06-06 12:53:00,
2013-06-06 08:57:00,58.3,44.9,29.83,NNE,27,4.0,10.0,61,0.00,,,0.00,Wunderground v.1.12,2013-06-06 12:57:00,
2013-06-06 09:02:00,58.3,44.5,29.83,ENE,67,6.0,12.0,60,0.00,,,0.00,Wunderground v.1.12,2013-06-06 13:02:00,
2013-06-06 09:07:00,58.4,45.0,29.83,ENE,68,4.0,6.0,61,0.00,,,0.00,Wunderground v.1.12,2013-06-06 13:07:00,
2013-06-06 09:13:00,58.6,45.2,29.83,North,10,6.0,9.0,61,0.00,,,0.00,Wunderground v.1.12,2013-06-06 13:13:00,
2013-06-06 09:17:00,58.6,44.8,29.83,ENE,78,0.0,10.0,60,0.00,,,0.00,Wunderground v.1.12,2013-06-06 13:17:00,
2013-06-06 09:22:00,58.9,45.5,29.83,ENE,62,2.0,5.0,61,0.00,,,0.00,Wunderground v.1.12,2013-06-06 13:22:00,
2013-06-06 09:27:00,59.2,45.3,29.83,NE,35,8.0,10.0,60,0.00,,,0.00,Wunderground v.1.12,2013-06-06 13:27:00,
2013-06-06 09:32:00,59.2,45.3,29.83,NE,48,4.0,12.0,60,0.00,,,0.00,Wunderground v.1.12,2013-06-06 13:32:00,
2013-06-06 09:37:00,59.5,46.0,29.83,ENE,71,6.0,7.0,61,0.00,,,0.00,Wunderground v.1.12,2013-06-06 13:37:00,
2013-06-06 09:42:00,59.9,46.4,29.83,ENE,62,5.0,9.0,61,0.00,,,0.00,Wunderground v.1.12,2013-06-06 13:42:00,
2013-06-06 09:47:00,60.1,46.2,29.83,NE,51,5.0,10.0,60,0.00,,,0.00,Wunderground v.1.12,2013-06-06 13:47:00,
2013-06-06 09:52:00,60.1,46.2,29.83,ENE,78,5.0,10.0,60,0.00,,,0.00,Wunderground v.1.12,2013-06-06 13:52:00,
2013-06-06 09:57:00,60.1,46.6,29.84,ENE,75,5.0,9.0,61,0.00,,,0.00,Wunderground v.1.12,2013-06-06 13:57:00,
2013-06-06 10:02:00,60.1,46.2,29.84,NE,48,2.0,8.0,60,0.00,,,0.00,Wunderground v.1.12,2013-06-06 14:02:00,
2013-06-06 10:07:00,60.1,46.2,29.84,East,93,3.0,7.0,60,0.00,,,0.00,Wunderground v.1.12,2013-06-06 14:07:00,
2013-06-06 10:12:00,60.4,46.4,29.84,NE,54,5.0,10.0,60,0.00,,,0.00,Wunderground v.1.12,2013-06-06 14:12:00,
2013-06-06 10:17:00,60.4,46.0,29.84,NNE,23,4.0,8.0,59,0.00,,,0.00,Wunderground v.1.12,2013-06-06 14:17:00,
2013-06-06 10:22:00,60.5,46.5,29.84,NE,50,2.0,10.0,60,0.00,,,0.00,Wunderground v.1.12,2013-06-06 14:22:00,
2013-06-06 10:27:00,60.5,46.5,29.83,ENE,76,5.0,9.0,60,0.00,,,0.00,Wunderground v.1.12,2013-06-06 14:27:00,
2013-06-06 10:32:00,60.5,47.0,29.83,NE,39,7.0,8.0,61,0.00,,,0.00,Wunderground v.1.12,2013-06-06 14:32:00,
2013-06-06 10:39:00,60.2,46.3,29.83,ENE,74,7.0,10.0,60,0.00,,,0.00,Wunderground v.1.12,2013-06-06 14:39:00,
2013-06-06 10:44:00,60.1,46.6,29.83,North,9,4.0,8.0,61,0.00,,,0.00,Wunderground v.1.12,2013-06-06 14:44:00,
2013-06-06 10:49:00,59.9,46.4,29.83,ENE,60,1.0,8.0,61,0.00,,,0.00,Wunderground v.1.12,2013-06-06 14:49:00,
2013-06-06 10:55:00,60.1,47.0,29.83,NE,37,0.0,3.0,62,0.00,,,0.00,Wunderground v.1.12,2013-06-06 14:55:00,
2013-06-06 11:00:00,60.2,47.1,29.84,NNE,33,3.0,4.0,62,0.00,,,0.00,Wunderground v.1.12,2013-06-06 15:00:00,
2013-06-06 11:05:00,60.7,47.6,29.84,NE,35,0.0,3.0,62,0.00,,,0.00,Wunderground v.1.12,2013-06-06 15:05:00,
2013-06-06 11:10:00,61.3,47.7,29.84,ESE,110,1.0,3.0,61,0.00,,,0.00,Wunderground v.1.12,2013-06-06 15:10:00,
2013-06-06 11:15:00,61.8,47.3,29.84,NNW,342,4.0,4.0,59,0.00,,,0.00,Wunderground v.1.12,2013-06-06 15:15:00,
2013-06-06 11:20:00,62.0,47.5,29.84,NNE,28,0.0,3.0,59,0.00,,,0.00,Wunderground v.1.12,2013-06-06 15:20:00,
2013-06-06 11:25:00,62.0,47.5,29.84,NNW,338,0.0,3.0,59,0.00,,,0.00,Wunderground v.1.12,2013-06-06 15:25:00,
2013-06-06 11:30:00,62.0,47.0,29.84,NNE,24,3.0,4.0,58,0.00,,,0.00,Wunderground v.1.12,2013-06-06 15:30:00,
2013-06-06 11:35:00,61.8,47.3,29.84,NNW,345,2.0,3.0,59,0.00,,,0.00,Wunderground v.1.12,2013-06-06 15:35:00,
2013-06-06 11:40:00,61.8,47.3,29.84,NNW,332,6.0,6.0,59,0.00,,,0.00,Wunderground v.1.12,2013-06-06 15:40:00,
2013-06-06 11:45:00,61.8,47.3,29.85,NNW,343,1.0,3.0,59,0.00,,,0.00,Wunderground v.1.12,2013-06-06 15:45:00,
2013-06-06 11:50:00,61.8,47.3,29.85,NNE,27,4.0,4.0,59,0.00,,,0.00,Wunderground v.1.12,2013-06-06 15:50:00,
2013-06-06 11:55:00,61.8,47.3,29.85,NE,55,2.0,3.0,59,0.00,,,0.00,Wunderground v.1.12,2013-06-06 15:55:00,
2013-06-06 12:00:00,62.0,48.4,29.85,NE,53,3.0,3.0,61,0.00,,,0.00,Wunderground v.1.12,2013-06-06 16:00:00,
2013-06-06 12:05:00,62.1,48.5,29.85,NE,49,1.0,2.0,61,0.00,,,0.00,Wunderground v.1.12,2013-06-06 16:05:00,
2013-06-06 12:10:00,62.4,49.6,29.85,NE,44,5.0,5.0,63,0.00,,,0.00,Wunderground v.1.12,2013-06-06 16:10:00,
2013-06-06 12:15:00,62.3,48.2,29.85,NNE,25,3.0,3.0,60,0.00,,,0.00,Wunderground v.1.12,2013-06-06 16:15:00,
2013-06-06 12:20:00,62.1,48.5,29.85,NE,39,4.0,4.0,61,0.00,,,0.00,Wunderground v.1.12,2013-06-06 16:20:00,
2013-06-06 12:25:00,62.1,48.5,29.85,ENE,70,9.0,9.0,61,0.00,,,0.00,Wunderground v.1.12,2013-06-06 16:25:00,
2013-06-06 12:30:00,62.1,49.4,29.84,ENE,62,2.0,4.0,63,0.00,,,0.00,Wunderground v.1.12,2013-06-06 16:30:00,
2013-06-06 12:35:00,62.3,49.5,29.84,NNE,13,6.0,7.0,63,0.00,,,0.00,Wunderground v.1.12,2013-06-06 16:35:00,
2013-06-06 12:40:00,62.4,48.8,29.84,NE,53,0.0,4.0,61,0.00,,,0.00,Wunderground v.1.12,2013-06-06 16:40:00,
2013-06-06 12:45:00,62.6,49.0,29.83,ENE,67,2.0,4.0,61,0.00,,,0.00,Wunderground v.1.12,2013-06-06 16:45:00,
2013-06-06 12:50:00,62.6,49.0,29.83,NNE,18,2.0,4.0,61,0.00,,,0.00,Wunderground v.1.12,2013-06-06 16:50:00,
2013-06-06 12:55:00,63.1,49.4,29.83,NNE,27,3.0,5.0,61,0.00,,,0.00,Wunderground v.1.12,2013-06-06 16:55:00,
2013-06-06 13:00:00,63.5,49.4,29.82,ENE,59,7.0,9.0,60,0.00,,,0.00,Wunderground v.1.12,2013-06-06 17:00:00,
2013-06-06 13:05:00,63.9,49.7,29.82,NNE,23,3.0,5.0,60,0.00,,,0.00,Wunderground v.1.12,2013-06-06 17:05:00,
2013-06-06 13:10:00,64.0,49.8,29.82,NNE,29,9.0,10.0,60,0.00,,,0.00,Wunderground v.1.12,2013-06-06 17:10:00,
2013-06-06 13:15:00,64.2,50.5,29.82,SE,127,3.0,5.0,61,0.00,,,0.00,Wunderground v.1.12,2013-06-06 17:15:00,
2013-06-06 13:20:00,64.5,51.2,29.82,NE,43,3.0,4.0,62,0.00,,,0.00,Wunderground v.1.12,2013-06-06 17:20:00,
2013-06-06 13:25:00,64.7,50.5,29.82,ENE,66,0.0,5.0,60,0.00,,,0.00,Wunderground v.1.12,2013-06-06 17:25:00,
2013-06-06 13:30:00,65.2,50.5,29.82,North,360,3.0,5.0,59,0.00,,,0.00,Wunderground v.1.12,2013-06-06 17:30:00,
2013-06-06 13:35:00,65.3,51.1,29.82,NNE,23,5.0,5.0,60,0.00,,,0.00,Wunderground v.1.12,2013-06-06 17:35:00,
2013-06-06 13:40:00,65.3,50.6,29.82,NNE,19,10.0,10.0,59,0.00,,,0.00,Wunderground v.1.12,2013-06-06 17:40:00,
2013-06-06 13:45:00,65.5,50.8,29.82,NNW,343,2.0,4.0,59,0.00,,,0.00,Wunderground v.1.12,2013-06-06 17:45:00,
2013-06-06 13:50:00,66.1,52.3,29.82,NNE,21,8.0,8.0,61,0.00,,,0.00,Wunderground v.1.12,2013-06-06 17:50:00,
2013-06-06 13:55:00,66.0,50.3,29.82,NNE,22,5.0,5.0,57,0.00,,,0.00,Wunderground v.1.12,2013-06-06 17:55:00,
2013-06-06 14:00:00,66.1,51.4,29.82,NNE,12,0.0,5.0,59,0.00,,,0.00,Wunderground v.1.12,2013-06-06 18:00:00,
2013-06-06 14:05:00,66.3,51.1,29.82,ENE,71,2.0,5.0,58,0.00,,,0.00,Wunderground v.1.12,2013-06-06 18:05:00,
2013-06-06 14:10:00,66.4,51.2,29.82,ENE,65,4.0,5.0,58,0.00,,,0.00,Wunderground v.1.12,2013-06-06 18:10:00,
2013-06-06 14:15:00,66.8,52.5,29.83,NNE,25,5.0,5.0,60,0.00,,,0.00,Wunderground v.1.12,2013-06-06 18:15:00,
2013-06-06 14:20:00,66.9,51.6,29.83,NNE,20,8.0,8.0,58,0.00,,,0.00,Wunderground v.1.12,2013-06-06 18:20:00,
2013-06-06 14:25:00,67.3,52.9,29.83,North,2,0.0,3.0,60,0.00,,,0.00,Wunderground v.1.12,2013-06-06 18:25:00,
2013-06-06 14:30:00,67.9,53.0,29.82,NNE,23,3.0,3.0,59,0.00,,,0.00,Wunderground v.1.12,2013-06-06 18:30:00,
2013-06-06 14:35:00,67.8,52.5,29.82,NNE,27,8.0,9.0,58,0.00,,,0.00,Wunderground v.1.12,2013-06-06 18:35:00,
2013-06-06 14:40:00,67.9,53.5,29.82,ENE,64,5.0,6.0,60,0.00,,,0.00,Wunderground v.1.12,2013-06-06 18:40:00,
2013-06-06 14:45:00,68.1,52.8,29.82,NNE,16,11.0,11.0,58,0.00,,,0.00,Wunderground v.1.12,2013-06-06 18:45:00,
2013-06-06 14:50:00,68.1,52.8,29.82,NE,44,7.0,8.0,58,0.00,,,0.00,Wunderground v.1.12,2013-06-06 18:50:00,
2013-06-06 14:55:00,68.4,54.0,29.82,NE,44,3.0,6.0,60,0.00,,,0.00,Wunderground v.1.12,2013-06-06 18:55:00,
2013-06-06 15:00:00,68.4,52.1,29.81,NNW,341,1.0,5.0,56,0.00,,,0.00,Wunderground v.1.12,2013-06-06 19:00:00,
2013-06-06 15:05:00,69.1,53.7,29.81,NE,40,7.0,7.0,58,0.00,,,0.00,Wunderground v.1.12,2013-06-06 19:05:00,
2013-06-06 15:10:00,69.4,52.0,29.81,North,9,6.0,6.0,54,0.00,,,0.00,Wunderground v.1.12,2013-06-06 19:10:00,
2013-06-06 15:15:00,68.9,52.6,29.81,NNE,17,9.0,9.0,56,0.00,,,0.00,Wunderground v.1.12,2013-06-06 19:15:00,
2013-06-06 15:20:00,68.4,52.1,29.81,North,356,0.0,6.0,56,0.00,,,0.00,Wunderground v.1.12,2013-06-06 19:20:00,
2013-06-06 15:25:00,68.4,52.6,29.81,ENE,60,3.0,6.0,57,0.00,,,0.00,Wunderground v.1.12,2013-06-06 19:25:00,
2013-06-06 15:30:00,68.4,51.6,29.81,NE,42,11.0,11.0,55,0.00,,,0.00,Wunderground v.1.12,2013-06-06 19:30:00,
2013-06-06 15:34:00,68.3,52.0,29.81,NW,326,8.0,11.0,56,0.00,,,0.00,Wunderground v.1.12,2013-06-06 19:34:00,
2013-06-06 15:40:00,68.3,52.5,29.81,NNE,12,6.0,6.0,57,0.00,,,0.00,Wunderground v.1.12,2013-06-06 19:40:00,
2013-06-06 15:45:00,68.3,53.4,29.80,NE,50,8.0,8.0,59,0.00,,,0.00,Wunderground v.1.12,2013-06-06 19:45:00,
2013-06-06 15:50:00,68.4,52.6,29.80,ENE,58,5.0,6.0,57,0.00,,,0.00,Wunderground v.1.12,2013-06-06 19:50:00,
2013-06-06 15:55:00,68.6,53.7,29.80,NNE,13,8.0,10.0,59,0.00,,,0.00,Wunderground v.1.12,2013-06-06 19:55:00,
2013-06-06 16:00:00,68.8,52.9,29.80,East,81,7.0,7.0,57,0.00,,,0.00,Wunderground v.1.12,2013-06-06 20:00:00,
2013-06-06 16:05:00,68.9,52.6,29.80,NE,42,4.0,10.0,56,0.00,,,0.00,Wunderground v.1.12,2013-06-06 20:05:00,
2013-06-06 16:10:00,68.9,52.6,29.80,NE,35,6.0,9.0,56,0.00,,,0.00,Wunderground v.1.12,2013-06-06 20:10:00,
2013-06-06 16:15:00,68.9,53.0,29.80,NNE,30,5.0,14.0,57,0.00,,,0.00,Wunderground v.1.12,2013-06-06 20:15:00,
2013-06-06 16:20:00,68.9,53.5,29.80,NNE,12,8.0,12.0,58,0.00,,,0.00,Wunderground v.1.12,2013-06-06 20:20:00,
2013-06-06 16:25:00,68.9,54.0,29.80,NNE,22,3.0,6.0,59,0.00,,,0.00,Wunderground v.1.12,2013-06-06 20:25:00,
2013-06-06 16:30:00,69.3,54.4,29.81,ENE,73,1.0,5.0,59,0.00,,,0.00,Wunderground v.1.12,2013-06-06 20:30:00,
2013-06-06 16:35:00,69.4,54.0,29.81,North,2,6.0,7.0,58,0.00,,,0.00,Wunderground v.1.12,2013-06-06 20:35:00,
2013-06-06 16:40:00,69.4,52.5,29.81,North,351,2.0,6.0,55,0.00,,,0.00,Wunderground v.1.12,2013-06-06 20:40:00,
2013-06-06 16:45:00,68.9,53.5,29.81,North,8,1.0,11.0,58,0.00,,,0.00,Wunderground v.1.12,2013-06-06 20:45:00,
2013-06-06 16:50:00,68.4,52.6,29.81,NNW,341,9.0,13.0,57,0.00,,,0.00,Wunderground v.1.12,2013-06-06 20:50:00,
2013-06-06 16:55:00,68.3,53.9,29.81,ENE,57,1.0,7.0,60,0.00,,,0.00,Wunderground v.1.12,2013-06-06 20:55:00,
2013-06-06 17:00:00,68.6,54.6,29.81,NNE,14,3.0,6.0,61,0.00,,,0.00,Wunderground v.1.12,2013-06-06 21:00:00,
2013-06-06 17:05:00,69.1,54.2,29.81,North,11,8.0,8.0,59,0.00,,,0.00,Wunderground v.1.12,2013-06-06 21:05:00,
2013-06-06 17:10:00,68.9,53.5,29.81,NE,46,3.0,5.0,58,0.00,,,0.00,Wunderground v.1.12,2013-06-06 21:10:00,
2013-06-06 17:15:00,68.8,53.4,29.81,NW,319,7.0,8.0,58,0.00,,,0.00,Wunderground v.1.12,2013-06-06 21:15:00,
2013-06-06 17:20:00,68.9,54.4,29.81,NNE,19,5.0,8.0,60,0.00,,,0.00,Wunderground v.1.12,2013-06-06 21:20:00,
2013-06-06 17:25:00,68.8,53.9,29.81,NNE,29,7.0,9.0,59,0.00,,,0.00,Wunderground v.1.12,2013-06-06 21:25:00,
2013-06-06 17:30:00,68.9,54.4,29.81,NNE,25,7.0,7.0,60,0.00,,,0.00,Wunderground v.1.12,2013-06-06 21:30:00,
2013-06-06 17:35:00,68.6,54.2,29.81,NNE,27,5.0,8.0,60,0.00,,,0.00,Wunderground v.1.12,2013-06-06 21:35:00,
2013-06-06 17:40:00,67.9,53.5,29.81,East,93,4.0,10.0,60,0.00,,,0.00,Wunderground v.1.12,2013-06-06 21:40:00,
2013-06-06 17:45:00,67.4,53.9,29.81,ENE,63,3.0,5.0,62,0.00,,,0.00,Wunderground v.1.12,2013-06-06 21:45:00,
2013-06-06 17:50:00,67.1,53.6,29.81,ENE,58,3.0,6.0,62,0.00,,,0.00,Wunderground v.1.12,2013-06-06 21:50:00,
2013-06-06 17:55:00,66.9,53.5,29.81,ENE,61,11.0,12.0,62,0.00,,,0.00,Wunderground v.1.12,2013-06-06 21:55:00,
2013-06-06 18:00:00,66.8,53.8,29.81,North,358,3.0,4.0,63,0.00,,,0.00,Wunderground v.1.12,2013-06-06 22:00:00,
2013-06-06 18:05:00,66.6,53.6,29.81,NNE,30,4.0,7.0,63,0.00,,,0.00,Wunderground v.1.12,2013-06-06 22:05:00,
2013-06-06 18:10:00,66.6,53.6,29.81,NNW,335,4.0,6.0,63,0.00,,,0.00,Wunderground v.1.12,2013-06-06 22:10:00,
2013-06-06 18:15:00,66.8,53.4,29.81,NE,51,4.0,6.0,62,0.00,,,0.00,Wunderground v.1.12,2013-06-06 22:15:00,
2013-06-06 18:20:00,66.9,53.9,29.81,ENE,62,7.0,10.0,63,0.00,,,0.00,Wunderground v.1.12,2013-06-06 22:20:00,
2013-06-06 18:25:00,66.9,53.9,29.81,NE,48,7.0,7.0,63,0.00,,,0.00,Wunderground v.1.12,2013-06-06 22:25:00,
2013-06-06 18:30:00,66.8,52.9,29.81,NNE,25,5.0,8.0,61,0.00,,,0.00,Wunderground v.1.12,2013-06-06 22:30:00,
2013-06-06 18:35:00,66.6,53.2,29.81,NNW,329,7.0,9.0,62,0.00,,,0.00,Wunderground v.1.12,2013-06-06 22:35:00,
2013-06-06 18:40:00,66.4,53.8,29.81,NNE,21,4.0,8.0,64,0.00,,,0.00,Wunderground v.1.12,2013-06-06 22:40:00,
2013-06-06 18:45:00,66.3,52.9,29.81,NNE,32,7.0,10.0,62,0.00,,,0.00,Wunderground v.1.12,2013-06-06 22:45:00,
2013-06-06 18:50:00,66.0,53.0,29.81,NNE,27,11.0,14.0,63,0.00,,,0.00,Wunderground v.1.12,2013-06-06 22:50:00,
2013-06-06 18:55:00,65.5,52.6,29.81,NNE,28,8.0,11.0,63,0.00,,,0.00,Wunderground v.1.12,2013-06-06 22:55:00,
2013-06-06 19:00:00,65.2,52.3,29.81,ENE,57,2.0,10.0,63,0.00,,,0.00,Wunderground v.1.12,2013-06-06 23:00:00,
2013-06-06 19:05:00,65.0,52.5,29.81,ENE,58,5.0,7.0,64,0.00,,,0.00,Wunderground v.1.12,2013-06-06 23:05:00,
2013-06-06 19:10:00,64.8,52.3,29.81,ENE,70,6.0,9.0,64,0.00,,,0.00,Wunderground v.1.12,2013-06-06 23:10:00,
2013-06-06 19:15:00,64.7,52.2,29.81,NE,44,3.0,6.0,64,0.00,,,0.00,Wunderground v.1.12,2013-06-06 23:15:00,
2013-06-06 19:20:00,64.5,52.0,29.81,ENE,66,0.0,9.0,64,0.00,,,0.00,Wunderground v.1.12,2013-06-06 23:20:00,
2013-06-06 19:25:00,64.2,51.8,29.81,NNE,29,4.0,10.0,64,0.00,,,0.00,Wunderground v.1.12,2013-06-06 23:25:00,
2013-06-06 19:30:00,64.2,52.2,29.81,NNE,31,3.0,6.0,65,0.00,,,0.00,Wunderground v.1.12,2013-06-06 23:30:00,
2013-06-06 19:35:00,64.2,51.8,29.81,NNE,19,4.0,9.0,64,0.00,,,0.00,Wunderground v.1.12,2013-06-06 23:35:00,
2013-06-06 19:40:00,64.0,51.6,29.81,NNE,18,5.0,14.0,64,0.00,,,0.00,Wunderground v.1.12,2013-06-06 23:40:00,
2013-06-06 19:45:00,63.9,51.5,29.82,North,8,8.0,10.0,64,0.00,,,0.00,Wunderground v.1.12,2013-06-06 23:45:00,
2013-06-06 19:50:00,63.7,51.3,29.82,NNE,12,8.0,8.0,64,0.00,,,0.00,Wunderground v.1.12,2013-06-06 23:50:00,
2013-06-06 19:55:00,63.4,51.0,29.82,NNE,25,7.0,9.0,64,0.00,,,0.00,Wunderground v.1.12,2013-06-06 23:55:00,
2013-06-06 20:00:00,63.2,50.8,29.82,North,355,4.0,8.0,64,0.00,,,0.00,Wunderground v.1.12,2013-06-07 00:00:00,
2013-06-06 20:06:00,63.1,50.3,29.82,North,10,11.0,11.0,63,0.00,,,0.00,Wunderground v.1.12,2013-06-07 00:06:00,
2013-06-06 20:11:00,62.9,49.7,29.82,NNE,27,14.0,14.0,62,0.00,,,0.00,Wunderground v.1.12,2013-06-07 00:11:00,
2013-06-06 20:16:00,62.6,49.4,29.82,NNW,341,9.0,9.0,62,0.00,,,0.00,Wunderground v.1.12,2013-06-07 00:16:00,
2013-06-06 20:21:00,62.4,49.2,29.82,NNE,25,3.0,7.0,62,0.00,,,0.00,Wunderground v.1.12,2013-06-07 00:21:00,
2013-06-06 20:26:00,62.3,49.5,29.82,NNE,31,7.0,11.0,63,0.00,,,0.00,Wunderground v.1.12,2013-06-07 00:26:00,
2013-06-06 20:31:00,62.1,49.4,29.82,NE,36,7.0,12.0,63,0.00,,,0.00,Wunderground v.1.12,2013-06-07 00:31:00,
2013-06-06 20:36:00,62.0,49.3,29.82,NNE,23,3.0,9.0,63,0.00,,,0.00,Wunderground v.1.12,2013-06-07 00:36:00,
2013-06-06 20:41:00,61.8,49.1,29.82,ENE,62,10.0,14.0,63,0.00,,,0.00,Wunderground v.1.12,2013-06-07 00:41:00,
2013-06-06 20:46:00,61.8,49.1,29.82,NNE,18,1.0,9.0,63,0.00,,,0.00,Wunderground v.1.12,2013-06-07 00:46:00,
2013-06-06 20:51:00,61.6,48.9,29.82,North,349,4.0,7.0,63,0.00,,,0.00,Wunderground v.1.12,2013-06-07 00:51:00,
2013-06-06 20:57:00,61.6,49.3,29.83,NNE,21,2.0,5.0,64,0.00,,,0.00,Wunderground v.1.12,2013-06-07 00:57:00,
2013-06-06 21:02:00,61.5,49.2,29.83,NNE,19,3.0,7.0,64,0.00,,,0.00,Wunderground v.1.12,2013-06-07 01:02:00,
2013-06-06 21:07:00,61.3,49.0,29.83,ENE,66,5.0,8.0,64,0.00,,,0.00,Wunderground v.1.12,2013-06-07 01:07:00,
2013-06-06 21:12:00,61.2,48.5,29.83,NE,51,1.0,9.0,63,0.00,,,0.00,Wunderground v.1.12,2013-06-07 01:12:00,
2013-06-06 21:17:00,61.0,48.3,29.83,NNE,18,2.0,13.0,63,0.00,,,0.00,Wunderground v.1.12,2013-06-07 01:17:00,
2013-06-06 21:22:00,61.0,48.7,29.83,ENE,60,1.0,6.0,64,0.00,,,0.00,Wunderground v.1.12,2013-06-07 01:22:00,
2013-06-06 21:27:00,60.9,48.6,29.84,NNE,19,6.0,9.0,64,0.00,,,0.00,Wunderground v.1.12,2013-06-07 01:27:00,
2013-06-06 21:32:00,60.9,48.6,29.84,NE,52,3.0,7.0,64,0.00,,,0.00,Wunderground v.1.12,2013-06-07 01:32:00,
2013-06-06 21:37:00,60.9,48.6,29.84,ENE,63,5.0,9.0,64,0.00,,,0.00,Wunderground v.1.12,2013-06-07 01:37:00,
2013-06-06 21:42:00,60.9,48.6,29.84,East,88,8.0,9.0,64,0.00,,,0.00,Wunderground v.1.12,2013-06-07 01:42:00,
2013-06-06 21:47:00,60.9,48.6,29.84,NNE,33,4.0,7.0,64,0.00,,,0.00,Wunderground v.1.12,2013-06-07 01:47:00,
2013-06-06 21:52:00,60.7,48.4,29.84,NE,35,2.0,7.0,64,0.00,,,0.00,Wunderground v.1.12,2013-06-07 01:52:00,
2013-06-06 21:57:00,60.7,48.4,29.84,ENE,71,4.0,7.0,64,0.00,,,0.00,Wunderground v.1.12,2013-06-07 01:57:00,
2013-06-06 22:02:00,60.7,48.4,29.84,NNE,19,7.0,8.0,64,0.00,,,0.00,Wunderground v.1.12,2013-06-07 02:02:00,
2013-06-06 22:07:00,60.7,48.4,29.84,NNE,24,5.0,11.0,64,0.00,,,0.00,Wunderground v.1.12,2013-06-07 02:07:00,
2013-06-06 22:12:00,60.5,48.3,29.84,North,350,5.0,8.0,64,0.00,,,0.00,Wunderground v.1.12,2013-06-07 02:12:00,
2013-06-06 22:17:00,60.5,48.3,29.84,NNE,24,10.0,13.0,64,0.00,,,0.00,Wunderground v.1.12,2013-06-07 02:17:00,
2013-06-06 22:22:00,60.5,47.8,29.84,NNE,19,6.0,10.0,63,0.00,,,0.00,Wunderground v.1.12,2013-06-07 02:22:00,
2013-06-06 22:27:00,60.5,48.3,29.84,NNE,13,6.0,9.0,64,0.00,,,0.00,Wunderground v.1.12,2013-06-07 02:27:00,
2013-06-06 22:32:00,60.4,48.2,29.84,North,10,8.0,11.0,64,0.00,,,0.00,Wunderground v.1.12,2013-06-07 02:32:00,
2013-06-06 22:37:00,60.2,48.0,29.84,NE,35,0.0,7.0,64,0.00,,,0.00,Wunderground v.1.12,2013-06-07 02:37:00,
2013-06-06 22:42:00,60.2,48.0,29.84,NNE,27,4.0,9.0,64,0.00,,,0.00,Wunderground v.1.12,2013-06-07 02:42:00,
2013-06-06 22:47:00,60.2,48.0,29.84,NNE,27,5.0,8.0,64,0.00,,,0.00,Wunderground v.1.12,2013-06-07 02:47:00,
2013-06-06 22:52:00,60.1,47.9,29.84,NNE,17,8.0,9.0,64,0.00,,,0.00,Wunderground v.1.12,2013-06-07 02:52:00,
2013-06-06 22:57:00,60.1,47.9,29.84,NNE,19,8.0,9.0,64,0.00,,,0.00,Wunderground v.1.12,2013-06-07 02:57:00,
2013-06-06 23:02:00,60.1,47.9,29.84,NNE,15,3.0,7.0,64,0.00,,,0.00,Wunderground v.1.12,2013-06-07 03:02:00,
2013-06-06 23:07:00,59.9,48.1,29.84,NNE,26,6.0,9.0,65,0.00,,,0.00,Wunderground v.1.12,2013-06-07 03:07:00,
2013-06-06 23:12:00,59.9,48.1,29.84,NE,46,5.0,12.0,65,0.00,,,0.00,Wunderground v.1.12,2013-06-07 03:12:00,
2013-06-06 23:17:00,59.9,48.5,29.84,NNE,26,6.0,6.0,66,0.00,,,0.00,Wunderground v.1.12,2013-06-07 03:17:00,
2013-06-06 23:22:00,59.9,48.5,29.84,ENE,70,4.0,7.0,66,0.00,,,0.00,Wunderground v.1.12,2013-06-07 03:22:00,
2013-06-06 23:27:00,59.8,48.8,29.84,NE,55,4.0,6.0,67,0.00,,,0.00,Wunderground v.1.12,2013-06-07 03:27:00,
2013-06-06 23:32:00,59.8,48.8,29.84,North,8,2.0,5.0,67,0.00,,,0.00,Wunderground v.1.12,2013-06-07 03:32:00,
2013-06-06 23:37:00,59.6,49.0,29.84,NNE,20,7.0,9.0,68,0.00,,,0.00,Wunderground v.1.12,2013-06-07 03:37:00,
2013-06-06 23:42:00,59.6,49.0,29.84,NNE,27,3.0,7.0,68,0.00,,,0.00,Wunderground v.1.12,2013-06-07 03:42:00,
2013-06-06 23:47:00,59.6,49.4,29.84,NE,46,4.0,4.0,69,0.00,,,0.00,Wunderground v.1.12,2013-06-07 03:47:00,
2013-06-06 23:52:00,59.5,49.3,29.84,North,3,4.0,7.0,69,0.00,,,0.00,Wunderground v.1.12,2013-06-07 03:52:00,
2013-06-06 23:57:00,59.5,49.3,29.84,North,352,4.0,6.0,69,0.00,,,0.00,Wunderground v.1.12,2013-06-07 03:57:00,